This demonstration page uses our WeatherBlox Daily Observations layout. Learn more.

39.29038, -76.61219

Hourly Observations for September 13, 2016

Temp ( °F °C ) Dew Point ( °F °C ) Humidity (%) Winds ( mph kmh ) Pressure ( in mb ) Visibility ( mi km ) Precip ( " mm )
12:54 am 00:54 undefined 73 22.8 57 13.9 57 57 undefined N/A 30.21 1023 N/A 0 0
1:54 am 01:54 undefined 71 21.7 58 14.4 63 63 undefined N/A 30.2 1023 N/A 0 0
2:54 am 02:54 undefined 71 21.7 59 15 66 66 undefined N/A 30.21 1023 N/A 0 0
3:54 am 03:54 undefined 70 21.1 61 16.1 73 73 undefined N/A 30.2 1023 N/A 0 0
4:54 am 04:54 undefined 70 21.1 61 16.1 73 73 undefined N/A 30.21 1023 N/A 0 0
5:54 am 05:54 undefined 69 20.6 59 15 70 70 undefined N/A 30.21 1023 N/A 0 0
6:54 am 06:54 undefined 69 20.6 60 15.6 73 73 undefined N/A 30.22 1023 N/A 0 0
7:54 am 07:54 undefined 71 21.7 62 16.7 73 73 undefined N/A 30.23 1024 N/A 0 0
8:54 am 08:54 undefined 72 22.2 63 17.2 73 73 undefined N/A 30.22 1024 N/A 0 0
9:54 am 09:54 undefined 76 24.4 62 16.7 62 62 undefined N/A 30.22 1024 N/A 0 0
10:54 am 10:54 undefined 79 26.1 60 15.6 52 52 undefined N/A 30.21 1023 N/A 0 0
11:54 am 11:54 undefined 81 27.2 61 16.1 51 51 undefined N/A 30.19 1022 N/A 0 0
12:54 pm 12:54 undefined 84 28.9 61 16.1 46 46 undefined N/A 30.17 1022 N/A 0 0
1:54 pm 13:54 undefined 87 30.6 63 17.2 45 45 undefined N/A 30.14 1021 N/A 0 0
2:54 pm 14:54 undefined 84 28.9 64 17.8 51 51 undefined N/A 30.12 1020 N/A 0 0
3:54 pm 15:54 undefined 84 28.9 65 18.3 53 53 undefined N/A 30.09 1019 N/A 0 0
4:54 pm 16:54 undefined 85 29.4 62 16.7 46 46 undefined N/A 30.08 1019 N/A 0 0
7:54 pm 19:54 undefined 79 26.1 63 17.2 58 58 undefined N/A 30.11 1020 N/A 0 0
8:54 pm 20:54 undefined 78 25.6 65 18.3 64 64 undefined N/A 30.12 1020 N/A 0 0
9:54 pm 21:54 undefined 77 25 65 18.3 66 66 undefined N/A 30.13 1020 N/A 0 0
10:54 pm 22:54 undefined 77 25 64 17.8 64 64 undefined N/A 30.13 1020 N/A 0 0
11:54 pm 23:54 undefined 75 23.9 62 16.7 64 64 undefined N/A 30.13 1020 N/A 0 0

Powered by AerisWeather